DW9007 Weather Reports


time (UTC)temp
F
wind
direction
speed
knots
gust
knots
rain 1hr
in
rain 24hr
in
rain mn
in
humidity
%
barometer
mb
20260510224558 78 26 0.0 0.0 0.00 0.00 0.00 60 1014.4
20260510223056 78 26 0.0 0.0 0.00 0.00 0.00 59 1014.6
20260510221539 79 26 0.0 0.0 0.00 0.00 0.00 54 1014.6
20260510220038 81 69 0.0 0.0 0.00 0.00 0.00 53 1014.7
20260510214518 81 332 0.0 0.0 0.00 0.00 0.00 55 1014.6
20260510213020 81 275 0.0 0.0 0.00 0.00 0.00 56 1014.6
20260510211554 80 267 0.0 0.0 0.00 0.00 0.00 59 1014.7
20260510210053 80 254 0.0 0.0 0.00 0.00 0.00 60 1014.7
20260510204535 80 60 0.0 2.6 0.00 0.00 0.00 60 1014.7
20260510203032 79 279 0.0 0.9 0.00 0.00 0.00 62 1014.8
20260510201512 78 98 0.0 0.0 0.00 0.00 0.00 62 1014.9
20260510200011 78 355 0.0 3.5 0.00 0.00 0.00 65 1015.0
20260510194552 78 38 0.0 0.0 0.00 0.00 0.00 66 1015.0
20260510193051 78 314 0.0 0.0 0.00 0.00 0.00 67 1015.2
20260510191533 77 306 0.0 0.0 0.00 0.00 0.00 66 1015.1
20260510190042 77 288 0.0 0.0 0.00 0.00 0.00 67 1015.3
20260510184508 76 81 0.0 0.0 0.00 0.00 0.00 72 1015.5
20260510183006 75 69 0.0 2.6 0.00 0.00 0.00 72 1015.6
20260510181610 75 269 0.0 1.7 0.00 0.00 0.00 74 1015.6
20260510180058 74 242 0.0 3.5 0.00 0.00 0.00 74 1015.7
20260510174545 74 240 0.9 3.5 0.00 0.00 0.00 75 1015.9
20260510173027 73 227 0.0 0.0 0.00 0.00 0.00 79 1016.2
20260510171528 72 15 0.0 2.6 0.00 0.00 0.00 83 1016.4
20260510170009 71 336 0.0 0.0 0.00 0.00 0.00 84 1016.5
20260510164508 71 88 0.0 0.0 0.00 0.00 0.00 85 1016.7
20260510163050 70 13 0.0 2.6 0.00 0.00 0.00 86 1016.7
20260510161550 70 338 0.0 1.7 0.00 0.00 0.00 87 1016.6
20260510160038 70 228 0.0 0.9 0.00 0.00 0.00 87 1016.7
20260510154547 69 227 0.0 1.7 0.00 0.00 0.00 89 1016.6
20260510153038 68 221 0.9 3.5 0.00 0.00 0.00 90 1016.5
20260510151519 66 88 0.0 0.0 0.00 0.00 0.00 91 1016.5
20260510150019 66 88 0.0 0.0 0.00 0.00 0.00 93 1016.7
20260510144541 65 85 0.0 0.9 0.00 0.00 0.00 93 1016.7
20260510143017 65 85 0.0 1.7 0.00 0.00 0.00 94 1016.9
20260510141517 65 67 0.0 0.0 0.00 0.00 0.00 95 1016.9
20260510140017 64 36 0.0 0.9 0.00 0.00 0.00 95 1016.9
20260510134516 64 36 0.0 0.0 0.00 0.00 0.00 95 1016.7
20260510133058 64 36 0.0 0.0 0.00 0.00 0.00 95 1016.7
20260510131557 64 36 0.0 0.0 0.00 0.00 0.00 96 1016.7
20260510130038 64 36 0.0 0.9 0.00 0.00 0.00 96 1016.4
20260510124541 64 36 0.0 0.0 0.00 0.00 0.00 96 1016.3
20260510123018 64 36 0.0 0.0 0.00 0.00 0.00 96 1015.9
20260510121516 63 36 0.0 0.0 0.00 0.00 0.00 96 1015.8
20260510120055 63 36 0.0 0.0 0.00 0.00 0.00 96 1015.4
20260510114554 63 36 0.0 0.0 0.00 0.00 0.00 96 1015.1
20260510113034 63 36 0.0 0.0 0.00 0.00 0.00 95 1014.9
20260510111535 63 36 0.0 0.0 0.00 0.00 0.00 95 1014.6
20260510110015 63 36 0.0 0.0 0.00 0.00 0.00 95 1014.3
20260510104509 63 36 0.0 0.9 0.00 0.00 0.00 95 1014.2
20260510103047 63 54 0.0 0.0 0.00 0.00 0.00 95 1013.9
20260510101552 63 54 0.0 1.7 0.00 0.00 0.00 95 1013.9
20260510100028 63 58 0.0 0.0 0.00 0.00 0.00 95 1013.8
20260510094528 63 58 0.0 1.7 0.00 0.00 0.00 95 1013.5
20260510093007 63 88 0.0 0.9 0.00 0.00 0.00 95 1013.3
20260510091507 63 17 0.0 1.7 0.00 0.00 0.00 95 1013.0
20260510090049 64 17 0.0 2.6 0.00 0.00 0.00 95 1013.1
20260510084559 63 250 0.0 0.9 0.00 0.00 0.00 95 1013.0
20260510083035 63 249 0.0 0.0 0.00 0.00 0.00 95 1012.8
20260510081535 63 249 0.0 0.0 0.00 0.00 0.00 95 1012.7
20260510080012 63 249 0.0 0.0 0.00 0.00 0.00 95 1012.5
20260510074512 63 249 0.0 0.0 0.00 0.00 0.00 95 1012.6
20260510073055 63 249 0.0 0.0 0.00 0.00 0.00 94 1012.5
20260510071555 63 249 0.0 0.0 0.00 0.00 0.00 95 1012.5
20260510070037 63 249 0.0 0.0 0.00 0.00 0.00 95 1012.7
20260510064535 63 249 0.0 0.0 0.00 0.00 0.00 95 1012.9
20260510063017 63 249 0.0 0.0 0.00 0.00 0.00 94 1012.9
20260510061515 63 249 0.0 0.0 0.00 0.00 0.00 94 1012.9
20260510060056 63 249 0.0 0.0 0.00 0.00 0.00 94 1013.0
20260510054555 64 249 0.0 0.0 0.00 0.00 0.00 94 1013.2
20260510053053 64 249 0.0 0.0 0.00 0.00 0.00 94 1013.1
20260510051544 64 249 0.0 0.0 0.00 0.00 0.00 94 1013.3
20260510050045 64 249 0.0 0.0 0.00 0.00 0.00 93 1013.2
20260510044547 64 249 0.0 0.0 0.00 0.00 0.00 93 1013.2
20260510043043 64 249 0.0 0.0 0.00 0.00 0.00 93 1013.4
20260510041540 64 249 0.0 0.0 0.00 0.00 0.00 93 1013.3
20260510040039 65 249 0.0 0.0 0.00 0.00 0.00 93 1013.3
20260510034537 65 249 0.0 0.0 0.00 0.00 0.00 92 1013.3
20260510033016 65 249 0.0 0.0 0.00 0.00 0.00 92 1013.3
20260510031517 66 249 0.0 0.0 0.00 0.00 0.00 91 1013.2
20260510030058 66 249 0.0 0.0 0.00 0.00 0.00 91 1013.3
20260510024555 66 249 0.0 0.0 0.00 0.00 0.00 90 1013.1
20260510023043 67 249 0.0 0.0 0.00 0.00 0.00 90 1013.1
20260510021538 67 249 0.0 0.0 0.00 0.00 0.00 89 1012.8
20260510020035 67 249 0.0 0.0 0.00 0.00 0.00 88 1012.6
20260510014532 67 249 0.0 0.0 0.00 0.00 0.00 88 1012.3
20260510013028 68 254 0.0 0.0 0.00 0.00 0.00 87 1012.0
20260510011527 68 254 0.0 0.0 0.00 0.00 0.00 85 1011.9
20260510010024 68 254 0.0 0.0 0.00 0.00 0.00 85 1011.5
20260510004521 69 254 0.0 0.0 0.00 0.00 0.00 84 1011.3
20260510003002 69 254 0.0 0.0 0.00 0.00 0.00 83 1011.2
20260510001600 70 254 0.0 0.0 0.00 0.00 0.00 83 1011.1
20260510000039 71 254 0.0 0.0 0.00 0.00 0.00 82 1011.0
20260509234539 71 254 0.0 0.0 0.00 0.00 0.00 81 1010.8
20260509233017 72 254 0.0 0.0 0.00 0.00 0.00 81 1010.7
20260509231515 72 254 0.0 0.0 0.00 0.00 0.00 79 1010.5
20260509230058 73 254 0.0 0.0 0.00 0.00 0.00 77 1010.5